Time,TemperatureF,DewpointF,PressureIn,WindDirection,WindDirectionDegrees,WindSpeedMPH,WindSpeedGustMPH,Humidity,HourlyPrecipIn,Conditions,Clouds,dailyrainin,SoftwareType,DateUTC
2013-04-07 00:00:00,36.1,22.4,25.45,North,0,0.0,0.0,57,0.00,,---,0.00,VWS V13.01,2013-04-07 06:00:00,
2013-04-07 00:05:00,36.0,22.6,25.45,North,0,0.0,0.0,58,0.00,,---,0.00,VWS V13.01,2013-04-07 06:05:00,
2013-04-07 00:10:00,35.8,22.5,25.45,North,0,0.0,0.0,58,0.00,,---,0.00,VWS V13.01,2013-04-07 06:10:00,
2013-04-07 00:15:00,35.8,22.9,25.45,North,0,0.0,0.0,59,0.00,,---,0.00,VWS V13.01,2013-04-07 06:15:00,
2013-04-07 00:20:00,35.8,22.9,25.45,North,0,0.0,0.0,59,0.00,,---,0.00,VWS V13.01,2013-04-07 06:20:00,
2013-04-07 00:25:00,35.8,22.9,25.45,North,0,0.0,0.0,59,0.00,,---,0.00,VWS V13.01,2013-04-07 06:25:00,
2013-04-07 00:30:00,35.6,22.7,25.45,North,0,0.0,0.0,59,0.00,,---,0.00,VWS V13.01,2013-04-07 06:30:00,
2013-04-07 00:35:00,35.4,22.5,25.45,North,0,0.0,0.0,59,0.00,,---,0.00,VWS V13.01,2013-04-07 06:35:00,
2013-04-07 00:40:00,35.4,22.9,25.45,North,0,0.0,0.0,60,0.00,,---,0.00,VWS V13.01,2013-04-07 06:40:00,
2013-04-07 00:45:00,35.2,22.8,25.45,North,0,0.0,0.0,60,0.00,,---,0.00,VWS V13.01,2013-04-07 06:45:00,
2013-04-07 00:50:00,35.1,22.6,25.45,North,0,0.0,0.0,60,0.00,,---,0.00,VWS V13.01,2013-04-07 06:50:00,
2013-04-07 00:55:00,34.9,22.4,25.45,North,0,0.0,0.0,60,0.00,,---,0.00,VWS V13.01,2013-04-07 06:55:00,
2013-04-07 01:00:00,34.5,22.5,25.45,North,0,0.0,0.0,61,0.00,,---,0.00,VWS V13.01,2013-04-07 07:00:00,
2013-04-07 01:05:00,34.2,22.1,25.43,North,0,0.0,0.0,61,0.00,,---,0.00,VWS V13.01,2013-04-07 07:05:00,
2013-04-07 01:10:00,34.0,22.4,25.43,North,0,0.0,0.0,62,0.00,,---,0.00,VWS V13.01,2013-04-07 07:10:00,
2013-04-07 01:15:00,34.0,22.7,25.43,North,0,0.0,0.0,63,0.00,,---,0.00,VWS V13.01,2013-04-07 07:15:00,
2013-04-07 01:20:00,34.0,22.7,25.43,North,0,0.0,0.0,63,0.00,,---,0.00,VWS V13.01,2013-04-07 07:20:00,
2013-04-07 01:25:00,34.3,23.4,25.43,North,0,0.0,0.0,64,0.00,,---,0.00,VWS V13.01,2013-04-07 07:25:00,
2013-04-07 01:30:00,34.5,23.6,25.43,North,0,0.0,0.0,64,0.00,,---,0.00,VWS V13.01,2013-04-07 07:30:00,
2013-04-07 01:35:00,34.9,23.6,25.43,North,0,0.0,0.0,63,0.00,,---,0.00,VWS V13.01,2013-04-07 07:35:00,
2013-04-07 01:40:00,35.1,23.4,25.43,North,0,0.0,0.0,62,0.00,,---,0.00,VWS V13.01,2013-04-07 07:40:00,
2013-04-07 01:45:00,35.2,23.1,25.43,North,0,0.0,0.0,61,0.00,,---,0.00,VWS V13.01,2013-04-07 07:45:00,
2013-04-07 01:50:00,35.4,22.9,25.43,North,0,0.0,0.0,60,0.00,,---,0.00,VWS V13.01,2013-04-07 07:50:00,
2013-04-07 01:55:00,35.6,22.7,25.43,North,0,0.0,0.0,59,0.00,,---,0.00,VWS V13.01,2013-04-07 07:55:00,
2013-04-07 02:00:00,35.8,22.9,25.43,North,0,0.0,0.0,59,0.00,,---,0.00,VWS V13.01,2013-04-07 08:00:00,
2013-04-07 02:06:00,36.1,22.4,25.43,North,0,0.0,0.0,57,0.00,,---,0.00,VWS V13.01,2013-04-07 08:06:00,
2013-04-07 02:11:00,36.5,22.3,25.43,North,0,0.0,0.0,56,0.00,,---,0.00,VWS V13.01,2013-04-07 08:11:00,
2013-04-07 02:16:00,36.5,22.3,25.43,North,0,0.0,0.0,56,0.00,,---,0.00,VWS V13.01,2013-04-07 08:16:00,
2013-04-07 02:21:00,36.5,22.3,25.43,North,0,0.0,0.0,56,0.00,,---,0.00,VWS V13.01,2013-04-07 08:21:00,
2013-04-07 02:26:00,36.3,22.1,25.43,North,0,0.0,0.0,56,0.00,,---,0.00,VWS V13.01,2013-04-07 08:26:00,
2013-04-07 02:32:00,36.3,22.1,25.43,North,0,0.0,0.0,56,0.00,,---,0.00,VWS V13.01,2013-04-07 08:32:00,
2013-04-07 02:37:00,36.1,22.0,25.43,North,0,0.0,0.0,56,0.00,,---,0.00,VWS V13.01,2013-04-07 08:37:00,
2013-04-07 02:42:00,36.3,22.1,25.43,North,0,0.0,0.0,56,0.00,,---,0.00,VWS V13.01,2013-04-07 08:42:00,
2013-04-07 02:47:00,36.3,22.1,25.43,North,0,0.0,0.0,56,0.00,,---,0.00,VWS V13.01,2013-04-07 08:47:00,
2013-04-07 02:52:00,36.3,22.1,25.43,North,0,0.0,0.0,56,0.00,,---,0.00,VWS V13.01,2013-04-07 08:52:00,
2013-04-07 02:57:00,36.1,22.0,25.43,North,0,0.0,0.0,56,0.00,,---,0.00,VWS V13.01,2013-04-07 08:57:00,
2013-04-07 03:02:00,36.0,21.8,25.43,North,0,0.0,0.0,56,0.00,,---,0.00,VWS V13.01,2013-04-07 09:02:00,
2013-04-07 03:07:00,35.6,21.9,25.40,North,0,0.0,0.0,57,0.00,,---,0.00,VWS V13.01,2013-04-07 09:07:00,
2013-04-07 03:12:00,35.2,22.0,25.40,North,0,0.0,0.0,58,0.00,,---,0.00,VWS V13.01,2013-04-07 09:12:00,
2013-04-07 03:17:00,35.1,22.2,25.40,North,0,0.0,0.0,59,0.00,,---,0.00,VWS V13.01,2013-04-07 09:17:00,
2013-04-07 03:23:00,35.1,22.6,25.40,North,0,0.0,0.0,60,0.00,,---,0.00,VWS V13.01,2013-04-07 09:23:00,
2013-04-07 03:28:00,35.2,23.1,25.40,North,0,0.0,0.0,61,0.00,,---,0.00,VWS V13.01,2013-04-07 09:28:00,
2013-04-07 03:33:00,35.4,22.9,25.40,North,0,0.0,0.0,60,0.00,,---,0.00,VWS V13.01,2013-04-07 09:33:00,
2013-04-07 03:38:00,35.4,22.9,25.40,North,0,0.0,0.0,60,0.00,,---,0.00,VWS V13.01,2013-04-07 09:38:00,
2013-04-07 03:43:00,35.6,23.1,25.40,North,0,0.0,0.0,60,0.00,,---,0.00,VWS V13.01,2013-04-07 09:43:00,
2013-04-07 03:48:00,35.6,23.1,25.40,North,0,0.0,0.0,60,0.00,,---,0.00,VWS V13.01,2013-04-07 09:48:00,
2013-04-07 03:53:00,36.0,23.4,25.40,North,0,0.0,0.0,60,0.00,,---,0.00,VWS V13.01,2013-04-07 09:53:00,
2013-04-07 03:58:00,36.1,23.2,25.40,North,0,0.0,0.0,59,0.00,,---,0.00,VWS V13.01,2013-04-07 09:58:00,
2013-04-07 04:03:00,36.5,23.1,25.40,North,0,0.0,0.0,58,0.00,,---,0.00,VWS V13.01,2013-04-07 10:03:00,
2013-04-07 04:08:00,36.9,23.5,25.40,North,0,0.0,0.0,58,0.00,,---,0.00,VWS V13.01,2013-04-07 10:08:00,
2013-04-07 04:13:00,37.2,23.4,25.40,North,0,0.0,0.0,57,0.00,,---,0.00,VWS V13.01,2013-04-07 10:13:00,
2013-04-07 04:18:00,37.6,23.3,25.40,North,0,0.0,0.0,56,0.00,,---,0.00,VWS V13.01,2013-04-07 10:18:00,
2013-04-07 04:23:00,37.8,23.1,25.40,North,0,0.0,0.0,55,0.00,,---,0.00,VWS V13.01,2013-04-07 10:23:00,
2013-04-07 04:28:00,37.8,23.1,25.40,North,0,0.0,0.0,55,0.00,,---,0.00,VWS V13.01,2013-04-07 10:28:00,
2013-04-07 04:33:00,37.8,23.1,25.40,North,0,0.0,0.0,55,0.00,,---,0.00,VWS V13.01,2013-04-07 10:33:00,
2013-04-07 04:38:00,38.1,23.4,25.40,North,0,0.0,0.0,55,0.00,,---,0.00,VWS V13.01,2013-04-07 10:38:00,
2013-04-07 04:43:00,38.3,23.6,25.40,North,0,0.0,0.0,55,0.00,,---,0.00,VWS V13.01,2013-04-07 10:43:00,
2013-04-07 04:48:00,38.5,23.3,25.40,North,0,0.0,0.0,54,0.00,,---,0.00,VWS V13.01,2013-04-07 10:48:00,
2013-04-07 04:53:00,38.7,23.5,25.40,North,0,0.0,0.0,54,0.00,,---,0.00,VWS V13.01,2013-04-07 10:53:00,
2013-04-07 04:58:00,38.7,23.5,25.40,North,0,0.0,0.0,54,0.00,,---,0.00,VWS V13.01,2013-04-07 10:58:00,
2013-04-07 05:03:00,38.7,23.5,25.40,North,0,0.0,0.0,54,0.00,,---,0.00,VWS V13.01,2013-04-07 11:03:00,
2013-04-07 05:08:00,38.5,23.3,25.40,North,0,0.0,0.0,54,0.00,,---,0.00,VWS V13.01,2013-04-07 11:08:00,
2013-04-07 05:13:00,38.5,23.3,25.40,North,0,0.0,0.0,54,0.00,,---,0.00,VWS V13.01,2013-04-07 11:13:00,
2013-04-07 05:18:00,38.5,23.7,25.40,North,0,0.0,0.0,55,0.00,,---,0.00,VWS V13.01,2013-04-07 11:18:00,
2013-04-07 05:23:00,38.7,23.5,25.40,North,0,0.0,0.0,54,0.00,,---,0.00,VWS V13.01,2013-04-07 11:23:00,
2013-04-07 05:28:00,38.7,23.5,25.40,North,0,0.0,0.0,54,0.00,,---,0.00,VWS V13.01,2013-04-07 11:28:00,
2013-04-07 05:33:00,38.8,24.1,25.40,North,0,0.0,0.0,55,0.00,,---,0.00,VWS V13.01,2013-04-07 11:33:00,
2013-04-07 05:38:00,38.8,24.1,25.40,North,0,0.0,0.0,55,0.00,,---,0.00,VWS V13.01,2013-04-07 11:38:00,
2013-04-07 05:43:00,38.8,24.1,25.40,North,0,0.0,0.0,55,0.00,,---,0.00,VWS V13.01,2013-04-07 11:43:00,
2013-04-07 05:49:00,38.8,24.1,25.40,North,0,0.0,0.0,55,0.00,,---,0.00,VWS V13.01,2013-04-07 11:49:00,
2013-04-07 05:54:00,38.8,24.1,25.40,North,0,0.0,0.0,55,0.00,,---,0.00,VWS V13.01,2013-04-07 11:54:00,
2013-04-07 05:59:00,38.7,23.9,25.40,North,0,0.0,0.0,55,0.00,,---,0.00,VWS V13.01,2013-04-07 11:59:00,
2013-04-07 06:04:00,37.9,24.1,25.40,North,0,0.0,0.0,57,0.00,,---,0.00,VWS V13.01,2013-04-07 12:04:00,
2013-04-07 06:09:00,36.9,25.5,25.40,North,0,0.0,0.0,63,0.00,,---,0.00,VWS V13.01,2013-04-07 12:09:00,
2013-04-07 06:14:00,36.3,26.4,25.40,North,0,0.0,0.0,67,0.00,,---,0.00,VWS V13.01,2013-04-07 12:14:00,
2013-04-07 06:19:00,36.1,27.0,25.40,North,0,0.0,0.0,69,0.00,,---,0.00,VWS V13.01,2013-04-07 12:19:00,
2013-04-07 06:24:00,36.0,27.1,25.40,North,0,0.0,0.0,70,0.00,,---,0.00,VWS V13.01,2013-04-07 12:24:00,
2013-04-07 06:29:00,36.0,27.5,25.40,North,0,0.0,0.0,71,0.00,,---,0.00,VWS V13.01,2013-04-07 12:29:00,
2013-04-07 06:34:00,36.0,28.2,25.40,North,0,0.0,0.0,73,0.00,,---,0.00,VWS V13.01,2013-04-07 12:34:00,
2013-04-07 06:40:00,36.0,28.8,25.40,North,0,0.0,0.0,75,0.00,,---,0.00,VWS V13.01,2013-04-07 12:40:00,
2013-04-07 06:45:00,36.1,29.0,25.40,North,0,0.0,0.0,75,0.00,,---,0.00,VWS V13.01,2013-04-07 12:45:00,
2013-04-07 06:50:00,36.3,29.2,25.40,North,0,0.0,0.0,75,0.00,,---,0.00,VWS V13.01,2013-04-07 12:50:00,
2013-04-07 06:55:00,36.9,29.7,25.40,North,0,0.0,0.0,75,0.00,,---,0.00,VWS V13.01,2013-04-07 12:55:00,
2013-04-07 07:00:00,37.4,29.9,25.40,North,0,0.0,0.0,74,0.00,,---,0.00,VWS V13.01,2013-04-07 13:00:00,
2013-04-07 07:05:00,38.1,30.2,25.40,North,0,0.0,0.0,73,0.00,,---,0.00,VWS V13.01,2013-04-07 13:05:00,
2013-04-07 07:10:00,38.8,30.6,25.40,North,0,0.0,0.0,72,0.00,,---,0.00,VWS V13.01,2013-04-07 13:10:00,
2013-04-07 07:15:00,39.2,30.2,25.40,North,0,0.0,0.0,70,0.00,,---,0.00,VWS V13.01,2013-04-07 13:15:00,
2013-04-07 07:20:00,39.7,29.7,25.40,North,0,0.0,0.0,67,0.00,,---,0.00,VWS V13.01,2013-04-07 13:20:00,
2013-04-07 07:25:00,39.9,29.5,25.40,North,0,0.0,0.0,66,0.00,,---,0.00,VWS V13.01,2013-04-07 13:25:00,
2013-04-07 07:30:00,40.5,28.9,25.40,North,0,0.0,0.0,63,0.00,,---,0.00,VWS V13.01,2013-04-07 13:30:00,
2013-04-07 07:35:00,40.8,27.6,25.40,North,0,0.0,0.0,59,0.00,,---,0.00,VWS V13.01,2013-04-07 13:35:00,
2013-04-07 07:40:00,40.6,27.9,25.40,North,0,0.0,0.0,60,0.00,,---,0.00,VWS V13.01,2013-04-07 13:40:00,
2013-04-07 07:45:00,39.4,28.6,25.40,North,0,0.0,0.0,65,0.00,,---,0.00,VWS V13.01,2013-04-07 13:45:00,
2013-04-07 07:50:00,39.0,30.4,25.40,North,0,0.0,0.0,71,0.00,,---,0.00,VWS V13.01,2013-04-07 13:50:00,
2013-04-07 07:55:00,39.4,31.8,25.40,North,0,0.0,0.0,74,0.00,,---,0.00,VWS V13.01,2013-04-07 13:55:00,
2013-04-07 08:00:00,40.1,32.5,25.40,North,0,0.0,0.0,74,0.00,,---,0.00,VWS V13.01,2013-04-07 14:00:00,
2013-04-07 08:05:00,40.6,33.0,25.40,North,0,0.0,0.0,74,0.00,,---,0.00,VWS V13.01,2013-04-07 14:05:00,
2013-04-07 08:10:00,41.5,33.9,25.40,North,0,0.0,0.0,74,0.00,,---,0.00,VWS V13.01,2013-04-07 14:10:00,
2013-04-07 08:15:00,43.0,35.6,25.40,North,0,0.0,0.0,75,0.00,,---,0.00,VWS V13.01,2013-04-07 14:15:00,
2013-04-07 08:20:00,43.5,35.5,25.40,North,0,0.0,0.0,73,0.00,,---,0.00,VWS V13.01,2013-04-07 14:20:00,
2013-04-07 08:25:00,43.7,35.6,25.40,North,0,0.0,0.0,73,0.00,,---,0.00,VWS V13.01,2013-04-07 14:25:00,
2013-04-07 08:30:00,44.8,36.7,25.40,North,0,0.0,0.0,73,0.00,,---,0.00,VWS V13.01,2013-04-07 14:30:00,
2013-04-07 08:36:00,48.4,40.5,25.40,North,0,0.0,0.0,74,0.00,,---,0.00,VWS V13.01,2013-04-07 14:36:00,
2013-04-07 08:41:00,51.4,39.3,25.40,North,0,0.0,0.0,63,0.00,,---,0.00,VWS V13.01,2013-04-07 14:41:00,
2013-04-07 08:46:00,52.5,34.4,25.40,North,0,0.0,0.0,50,0.00,,---,0.00,VWS V13.01,2013-04-07 14:46:00,
2013-04-07 08:51:00,52.7,35.1,25.40,North,0,0.0,0.0,51,0.00,,---,0.00,VWS V13.01,2013-04-07 14:51:00,
2013-04-07 08:56:00,52.7,33.0,25.40,North,0,0.0,0.0,47,0.00,,---,0.00,VWS V13.01,2013-04-07 14:56:00,
2013-04-07 09:01:00,52.3,31.6,25.40,North,0,0.0,0.0,45,0.00,,---,0.00,VWS V13.01,2013-04-07 15:01:00,
2013-04-07 09:07:00,51.4,30.8,25.37,North,0,0.0,0.0,45,0.00,,---,0.00,VWS V13.01,2013-04-07 15:07:00,
2013-04-07 09:12:00,51.3,31.2,25.37,North,0,0.0,0.0,46,0.00,,---,0.00,VWS V13.01,2013-04-07 15:12:00,
2013-04-07 09:17:00,52.0,31.3,25.37,North,0,0.0,0.0,45,0.00,,---,0.00,VWS V13.01,2013-04-07 15:17:00,
2013-04-07 09:22:00,52.9,31.0,25.37,North,0,0.0,0.0,43,0.00,,---,0.00,VWS V13.01,2013-04-07 15:22:00,
2013-04-07 09:27:00,53.2,30.8,25.37,North,0,0.0,0.0,42,0.00,,---,0.00,VWS V13.01,2013-04-07 15:27:00,
2013-04-07 09:32:00,53.8,30.6,25.37,North,0,0.0,0.0,41,0.00,,---,0.00,VWS V13.01,2013-04-07 15:32:00,
2013-04-07 09:37:00,53.8,30.0,25.37,North,0,0.0,0.0,40,0.00,,---,0.00,VWS V13.01,2013-04-07 15:37:00,
2013-04-07 09:42:00,56.1,31.5,25.37,North,0,0.0,0.0,39,0.00,,---,0.00,VWS V13.01,2013-04-07 15:42:00,
2013-04-07 09:47:00,62.2,33.5,25.37,North,0,0.0,0.0,34,0.00,,---,0.00,VWS V13.01,2013-04-07 15:47:00,
2013-04-07 09:52:00,64.8,31.8,25.37,North,0,0.0,0.0,29,0.00,,---,0.00,VWS V13.01,2013-04-07 15:52:00,
2013-04-07 09:57:00,62.8,30.1,25.37,North,0,0.0,0.0,29,0.00,,---,0.00,VWS V13.01,2013-04-07 15:57:00,
2013-04-07 10:02:00,59.4,28.7,25.37,North,0,0.0,0.0,31,0.00,,---,0.00,VWS V13.01,2013-04-07 16:02:00,
2013-04-07 10:07:00,63.0,30.2,25.37,North,0,0.0,0.0,29,0.00,,---,0.00,VWS V13.01,2013-04-07 16:07:00,
2013-04-07 10:12:00,62.4,30.6,25.37,North,0,0.0,0.0,30,0.00,,---,0.00,VWS V13.01,2013-04-07 16:12:00,
2013-04-07 10:17:00,63.9,31.0,25.37,North,0,0.0,0.0,29,0.00,,---,0.00,VWS V13.01,2013-04-07 16:17:00,
2013-04-07 10:23:00,67.8,32.7,25.37,North,0,0.0,0.0,27,0.00,,---,0.00,VWS V13.01,2013-04-07 16:23:00,
2013-04-07 10:27:00,64.9,30.2,25.37,North,0,0.0,0.0,27,0.00,,---,0.00,VWS V13.01,2013-04-07 16:27:00,
2013-04-07 10:32:00,60.3,28.7,25.37,North,0,0.0,0.0,30,0.00,,---,0.00,VWS V13.01,2013-04-07 16:32:00,
2013-04-07 10:37:00,57.7,29.6,25.37,North,0,0.0,0.0,34,0.00,,---,0.00,VWS V13.01,2013-04-07 16:37:00,
2013-04-07 10:43:00,58.3,30.8,25.37,North,0,0.0,0.0,35,0.00,,---,0.00,VWS V13.01,2013-04-07 16:43:00,
2013-04-07 10:48:00,61.5,31.4,25.37,North,0,0.0,0.0,32,0.00,,---,0.00,VWS V13.01,2013-04-07 16:48:00,
2013-04-07 10:53:00,64.0,32.8,25.34,North,0,0.0,0.0,31,0.00,,---,0.00,VWS V13.01,2013-04-07 16:53:00,
2013-04-07 10:58:00,60.1,30.1,25.34,North,0,0.0,0.0,32,0.00,,---,0.00,VWS V13.01,2013-04-07 16:58:00,
2013-04-07 11:03:00,57.2,29.8,25.34,North,0,0.0,0.0,35,0.00,,---,0.00,VWS V13.01,2013-04-07 17:03:00,
2013-04-07 11:08:00,56.7,31.4,25.34,North,0,0.0,0.0,38,0.00,,---,0.00,VWS V13.01,2013-04-07 17:08:00,
2013-04-07 11:13:00,59.2,33.0,25.34,North,0,0.0,0.0,37,0.00,,---,0.00,VWS V13.01,2013-04-07 17:13:00,
2013-04-07 11:18:00,59.4,32.4,25.34,North,0,0.0,0.0,36,0.00,,---,0.00,VWS V13.01,2013-04-07 17:18:00,
2013-04-07 11:23:00,63.1,34.3,25.34,North,0,0.0,0.0,34,0.00,,---,0.00,VWS V13.01,2013-04-07 17:23:00,
2013-04-07 11:28:00,63.1,34.3,25.34,North,0,0.0,0.0,34,0.00,,---,0.00,VWS V13.01,2013-04-07 17:28:00,
2013-04-07 11:33:00,64.6,34.8,25.34,North,0,0.0,0.0,33,0.00,,---,0.00,VWS V13.01,2013-04-07 17:33:00,
2013-04-07 11:38:00,60.8,32.3,25.34,North,0,0.0,0.0,34,0.00,,---,0.00,VWS V13.01,2013-04-07 17:38:00,
2013-04-07 11:43:00,62.2,33.5,25.34,North,0,0.0,0.0,34,0.00,,---,0.00,VWS V13.01,2013-04-07 17:43:00,
2013-04-07 11:48:00,61.9,33.2,25.34,North,0,0.0,0.0,34,0.00,,---,0.00,VWS V13.01,2013-04-07 17:48:00,
2013-04-07 11:53:00,60.6,32.8,25.34,North,0,0.0,0.0,35,0.00,,---,0.00,VWS V13.01,2013-04-07 17:53:00,
2013-04-07 11:58:00,64.0,34.4,25.34,North,0,0.0,0.0,33,0.00,,---,0.00,VWS V13.01,2013-04-07 17:58:00,
2013-04-07 12:03:00,63.0,33.4,25.34,North,0,0.0,0.0,33,0.00,,---,0.00,VWS V13.01,2013-04-07 18:03:00,
2013-04-07 12:08:00,60.1,31.6,25.34,North,0,0.0,0.0,34,0.00,,---,0.00,VWS V13.01,2013-04-07 18:08:00,
2013-04-07 12:13:00,57.6,31.5,25.34,North,0,0.0,0.0,37,0.00,,---,0.00,VWS V13.01,2013-04-07 18:13:00,
2013-04-07 12:19:00,57.2,31.8,25.34,North,0,0.0,0.0,38,0.00,,---,0.00,VWS V13.01,2013-04-07 18:19:00,
2013-04-07 12:24:00,56.8,31.5,25.34,North,0,0.0,0.0,38,0.00,,---,0.00,VWS V13.01,2013-04-07 18:24:00,
2013-04-07 12:29:00,56.7,33.2,25.34,North,0,0.0,0.0,41,0.00,,---,0.00,VWS V13.01,2013-04-07 18:29:00,
2013-04-07 12:34:00,58.6,33.8,25.34,North,0,0.0,0.0,39,0.00,,---,0.00,VWS V13.01,2013-04-07 18:34:00,
2013-04-07 12:39:00,59.9,33.6,25.34,North,0,0.0,0.0,37,0.00,,---,0.00,VWS V13.01,2013-04-07 18:39:00,
2013-04-07 12:45:00,59.9,32.9,25.34,North,0,0.0,0.0,36,0.00,,---,0.00,VWS V13.01,2013-04-07 18:45:00,
2013-04-07 12:50:00,59.5,32.6,25.34,North,0,0.0,0.0,36,0.00,,---,0.00,VWS V13.01,2013-04-07 18:50:00,
2013-04-07 12:54:00,61.0,33.2,25.34,North,0,0.0,0.0,35,0.00,,---,0.00,VWS V13.01,2013-04-07 18:54:00,
2013-04-07 12:59:00,61.0,33.2,25.34,North,0,0.0,0.0,35,0.00,,---,0.00,VWS V13.01,2013-04-07 18:59:00,
2013-04-07 13:05:00,59.9,32.2,25.34,North,0,0.0,0.0,35,0.00,,---,0.00,VWS V13.01,2013-04-07 19:05:00,
2013-04-07 13:10:00,55.2,30.7,25.34,North,0,0.0,0.0,39,0.00,,---,0.00,VWS V13.01,2013-04-07 19:10:00,
2013-04-07 13:15:00,50.5,35.9,25.34,North,0,0.0,0.0,57,0.00,,---,0.00,VWS V13.01,2013-04-07 19:15:00,
2013-04-07 13:20:00,50.0,39.1,25.34,North,0,0.0,0.0,66,0.00,,---,0.00,VWS V13.01,2013-04-07 19:20:00,
2013-04-07 13:25:00,49.5,38.6,25.34,North,0,0.0,0.0,66,0.00,,---,0.00,VWS V13.01,2013-04-07 19:25:00,
2013-04-07 13:30:00,49.6,39.9,25.34,North,0,0.0,0.0,69,0.00,,---,0.00,VWS V13.01,2013-04-07 19:30:00,
2013-04-07 13:35:00,48.9,38.1,25.34,North,0,0.0,0.0,66,0.00,,---,0.00,VWS V13.01,2013-04-07 19:35:00,
2013-04-07 13:40:00,47.7,37.6,25.34,North,0,0.0,0.0,68,0.00,,---,0.00,VWS V13.01,2013-04-07 19:40:00,
2013-04-07 13:45:00,47.7,39.1,25.34,North,0,0.0,0.0,72,0.00,,---,0.00,VWS V13.01,2013-04-07 19:45:00,
2013-04-07 13:50:00,48.4,40.1,25.34,North,0,0.0,0.0,73,0.00,,---,0.00,VWS V13.01,2013-04-07 19:50:00,
2013-04-07 13:55:00,47.5,39.3,25.34,North,0,0.0,0.0,73,0.00,,---,0.00,VWS V13.01,2013-04-07 19:55:00,
2013-04-07 14:00:00,47.3,40.1,25.34,North,0,0.0,0.0,76,0.00,,---,0.00,VWS V13.01,2013-04-07 20:00:00,
2013-04-07 14:05:00,47.7,40.8,25.34,North,0,0.0,0.0,77,0.00,,---,0.00,VWS V13.01,2013-04-07 20:05:00,
2013-04-07 14:10:00,50.4,44.4,25.34,North,0,0.0,0.0,80,0.00,,---,0.00,VWS V13.01,2013-04-07 20:10:00,
2013-04-07 14:16:00,51.8,43.1,25.34,North,0,0.0,0.0,72,0.00,,---,0.00,VWS V13.01,2013-04-07 20:16:00,
2013-04-07 14:21:00,51.8,42.3,25.34,North,0,0.0,0.0,70,0.00,,---,0.00,VWS V13.01,2013-04-07 20:21:00,
2013-04-07 14:25:00,51.4,42.4,25.34,North,0,0.0,0.0,71,0.00,,---,0.00,VWS V13.01,2013-04-07 20:25:00,
2013-04-07 14:31:00,50.5,41.1,25.34,North,0,0.0,0.0,70,0.00,,---,0.00,VWS V13.01,2013-04-07 20:31:00,
2013-04-07 14:36:00,49.8,41.9,25.34,North,0,0.0,0.0,74,0.00,,---,0.00,VWS V13.01,2013-04-07 20:36:00,
2013-04-07 14:41:00,50.5,42.9,25.34,North,0,0.0,0.0,75,0.00,,---,0.00,VWS V13.01,2013-04-07 20:41:00,
2013-04-07 14:46:00,51.1,40.1,25.34,North,0,0.0,0.0,66,0.00,,---,0.00,VWS V13.01,2013-04-07 20:46:00,
2013-04-07 14:51:00,51.4,39.7,25.31,North,0,0.0,0.0,64,0.00,,---,0.00,VWS V13.01,2013-04-07 20:51:00,
2013-04-07 14:56:00,52.5,39.0,25.31,North,0,0.0,0.0,60,0.00,,---,0.00,VWS V13.01,2013-04-07 20:56:00,
2013-04-07 15:01:00,54.1,37.9,25.31,North,0,0.0,0.0,54,0.00,,---,0.00,VWS V13.01,2013-04-07 21:01:00,
2013-04-07 15:06:00,55.6,38.2,25.31,North,0,0.0,0.0,52,0.00,,---,0.00,VWS V13.01,2013-04-07 21:06:00,
2013-04-07 15:12:00,54.3,36.1,25.31,North,0,0.0,0.0,50,0.00,,---,0.00,VWS V13.01,2013-04-07 21:12:00,
2013-04-07 15:17:00,52.3,35.2,25.31,North,0,0.0,0.0,52,0.00,,---,0.00,VWS V13.01,2013-04-07 21:17:00,
2013-04-07 15:22:00,51.8,35.7,25.31,North,0,0.0,0.0,54,0.00,,---,0.00,VWS V13.01,2013-04-07 21:22:00,
2013-04-07 15:27:00,51.6,37.3,25.31,North,0,0.0,0.0,58,0.00,,---,0.00,VWS V13.01,2013-04-07 21:27:00,
2013-04-07 15:32:00,50.2,36.0,25.31,North,0,0.0,0.0,58,0.00,,---,0.00,VWS V13.01,2013-04-07 21:32:00,
2013-04-07 15:37:00,48.7,37.1,25.31,North,0,0.0,0.0,64,0.00,,---,0.00,VWS V13.01,2013-04-07 21:37:00,
2013-04-07 15:42:00,47.7,39.1,25.31,North,0,0.0,0.0,72,0.00,,---,0.00,VWS V13.01,2013-04-07 21:42:00,
2013-04-07 15:48:00,47.3,39.5,25.31,North,0,0.0,0.0,74,0.00,,---,0.00,VWS V13.01,2013-04-07 21:48:00,
2013-04-07 15:53:00,47.1,40.6,25.31,North,0,0.0,0.0,78,0.00,,---,0.00,VWS V13.01,2013-04-07 21:53:00,
2013-04-07 15:58:00,46.8,41.6,25.31,North,0,0.0,0.0,82,0.00,,---,0.00,VWS V13.01,2013-04-07 21:58:00,
2013-04-07 16:03:00,46.9,42.7,25.31,North,0,0.0,0.0,85,0.00,,---,0.00,VWS V13.01,2013-04-07 22:03:00,
2013-04-07 16:08:00,47.8,44.2,25.31,North,0,0.0,0.0,87,0.00,,---,0.00,VWS V13.01,2013-04-07 22:08:00,
2013-04-07 16:13:00,48.9,46.1,25.31,North,0,0.0,0.0,90,0.00,,---,0.00,VWS V13.01,2013-04-07 22:13:00,
2013-04-07 16:18:00,49.3,46.2,25.31,North,0,0.0,0.0,89,0.00,,---,0.00,VWS V13.01,2013-04-07 22:18:00,
2013-04-07 16:23:00,49.6,46.2,25.31,North,0,0.0,0.0,88,0.00,,---,0.00,VWS V13.01,2013-04-07 22:23:00,
2013-04-07 16:28:00,50.7,47.0,25.31,North,0,0.0,0.0,87,0.00,,---,0.00,VWS V13.01,2013-04-07 22:28:00,
2013-04-07 16:33:00,50.2,44.3,25.31,North,0,0.0,0.0,80,0.00,,---,0.00,VWS V13.01,2013-04-07 22:33:00,
2013-04-07 16:38:00,49.5,43.2,25.31,North,0,0.0,0.0,79,0.00,,---,0.00,VWS V13.01,2013-04-07 22:38:00,
2013-04-07 16:43:00,49.3,43.4,25.31,North,0,0.0,0.0,80,0.00,,---,0.00,VWS V13.01,2013-04-07 22:43:00,
2013-04-07 16:48:00,49.3,43.7,25.28,North,0,0.0,0.0,81,0.00,,---,0.00,VWS V13.01,2013-04-07 22:48:00,
2013-04-07 16:53:00,49.1,43.8,25.28,North,0,0.0,0.0,82,0.00,,---,0.00,VWS V13.01,2013-04-07 22:53:00,
2013-04-07 16:58:00,49.3,44.3,25.28,North,0,0.0,0.0,83,0.00,,---,0.00,VWS V13.01,2013-04-07 22:58:00,
2013-04-07 17:03:00,48.9,44.0,25.28,North,0,0.0,0.0,83,0.00,,---,0.00,VWS V13.01,2013-04-07 23:03:00,
2013-04-07 17:08:00,48.2,42.7,25.28,North,0,0.0,0.0,81,0.00,,---,0.00,VWS V13.01,2013-04-07 23:08:00,
2013-04-07 17:13:00,48.7,43.8,25.28,North,0,0.0,0.0,83,0.00,,---,0.00,VWS V13.01,2013-04-07 23:13:00,
2013-04-07 17:18:00,49.1,44.5,25.28,North,0,0.0,0.0,84,0.00,,---,0.00,VWS V13.01,2013-04-07 23:18:00,
2013-04-07 17:23:00,49.1,44.2,25.28,North,0,0.0,0.0,83,0.00,,---,0.00,VWS V13.01,2013-04-07 23:23:00,
2013-04-07 17:28:00,48.6,42.7,25.28,North,0,0.0,0.0,80,0.00,,---,0.00,VWS V13.01,2013-04-07 23:28:00,
2013-04-07 17:33:00,48.2,42.0,25.28,North,0,0.0,0.0,79,0.00,,---,0.00,VWS V13.01,2013-04-07 23:33:00,
2013-04-07 17:38:00,48.2,42.3,25.28,North,0,0.0,0.0,80,0.00,,---,0.00,VWS V13.01,2013-04-07 23:38:00,
2013-04-07 17:43:00,48.4,42.5,25.28,North,0,0.0,0.0,80,0.00,,---,0.00,VWS V13.01,2013-04-07 23:43:00,
2013-04-07 17:48:00,48.2,42.3,25.28,North,0,0.0,0.0,80,0.00,,---,0.00,VWS V13.01,2013-04-07 23:48:00,
2013-04-07 17:53:00,48.2,42.3,25.28,North,0,0.0,0.0,80,0.00,,---,0.00,VWS V13.01,2013-04-07 23:53:00,
2013-04-07 17:59:00,48.0,42.2,25.28,North,0,0.0,0.0,80,0.00,,---,0.00,VWS V13.01,2013-04-07 23:59:00,
2013-04-07 18:04:00,47.5,41.6,25.28,North,0,0.0,0.0,80,0.00,,---,0.00,VWS V13.01,2013-04-08 00:04:00,
2013-04-07 18:09:00,47.1,41.3,25.28,North,0,0.0,0.0,80,0.00,,---,0.00,VWS V13.01,2013-04-08 00:09:00,
2013-04-07 18:14:00,46.8,41.2,25.28,North,0,0.0,0.0,81,0.00,,---,0.00,VWS V13.01,2013-04-08 00:14:00,
2013-04-07 18:19:00,46.9,42.7,25.28,North,0,0.0,0.0,85,0.00,,---,0.00,VWS V13.01,2013-04-08 00:19:00,
2013-04-07 18:24:00,47.1,43.2,25.28,North,0,0.0,0.0,86,0.00,,---,0.00,VWS V13.01,2013-04-08 00:24:00,
2013-04-07 18:29:00,47.1,43.2,25.28,North,0,0.0,0.0,86,0.00,,---,0.00,VWS V13.01,2013-04-08 00:29:00,
2013-04-07 18:34:00,47.1,43.2,25.28,North,0,0.0,0.0,86,0.00,,---,0.00,VWS V13.01,2013-04-08 00:34:00,
2013-04-07 18:39:00,47.1,43.2,25.28,North,0,0.0,0.0,86,0.00,,---,0.00,VWS V13.01,2013-04-08 00:39:00,
2013-04-07 18:44:00,46.9,43.3,25.28,North,0,0.0,0.0,87,0.00,,---,0.00,VWS V13.01,2013-04-08 00:44:00,
2013-04-07 18:49:00,46.8,43.1,25.28,North,0,0.0,0.0,87,0.00,,---,0.00,VWS V13.01,2013-04-08 00:49:00,
2013-04-07 18:54:00,46.2,42.9,25.28,North,0,0.0,0.0,88,0.00,,---,0.00,VWS V13.01,2013-04-08 00:54:00,
2013-04-07 18:59:00,45.5,42.2,25.28,North,0,0.0,0.0,88,0.00,,---,0.00,VWS V13.01,2013-04-08 00:59:00,
2013-04-07 19:05:00,44.2,40.9,25.28,North,0,0.0,0.0,88,0.00,,---,0.00,VWS V13.01,2013-04-08 01:05:00,
2013-04-07 19:10:00,43.7,40.7,25.28,North,0,0.0,0.0,89,0.00,,---,0.00,VWS V13.01,2013-04-08 01:10:00,
2013-04-07 19:14:00,43.5,41.1,25.28,North,0,0.0,0.0,91,0.00,,---,0.00,VWS V13.01,2013-04-08 01:14:00,
2013-04-07 19:20:00,43.3,40.9,25.28,North,0,0.0,0.0,91,0.00,,---,0.00,VWS V13.01,2013-04-08 01:20:00,
2013-04-07 19:25:00,43.0,40.8,25.28,North,0,0.0,0.0,92,0.00,,---,0.00,VWS V13.01,2013-04-08 01:25:00,
2013-04-07 19:30:00,42.8,40.6,25.28,North,0,0.0,0.0,92,0.00,,---,0.00,VWS V13.01,2013-04-08 01:30:00,
2013-04-07 19:35:00,42.3,40.1,25.28,North,0,0.0,0.0,92,0.00,,---,0.00,VWS V13.01,2013-04-08 01:35:00,
2013-04-07 19:40:00,42.1,40.2,25.28,North,0,0.0,0.0,93,0.00,,---,0.00,VWS V13.01,2013-04-08 01:40:00,
2013-04-07 19:45:00,42.1,40.2,25.28,North,0,0.0,0.0,93,0.00,,---,0.00,VWS V13.01,2013-04-08 01:45:00,
2013-04-07 19:50:00,41.9,40.3,25.28,North,0,0.0,0.0,94,0.00,,---,0.00,VWS V13.01,2013-04-08 01:50:00,
2013-04-07 19:55:00,41.7,40.1,25.28,North,0,0.0,0.0,94,0.00,,---,0.00,VWS V13.01,2013-04-08 01:55:00,
2013-04-07 20:00:00,41.9,40.3,25.28,North,0,0.0,0.0,94,0.00,,---,0.00,VWS V13.01,2013-04-08 02:00:00,
2013-04-07 20:05:00,41.7,40.4,25.28,North,0,0.0,0.0,95,0.00,,---,0.00,VWS V13.01,2013-04-08 02:05:00,
2013-04-07 20:10:00,41.7,40.4,25.28,North,0,0.0,0.0,95,0.00,,---,0.00,VWS V13.01,2013-04-08 02:10:00,
2013-04-07 20:15:00,41.5,40.2,25.28,North,0,0.0,0.0,95,0.00,,---,0.00,VWS V13.01,2013-04-08 02:15:00,
2013-04-07 20:20:00,41.5,40.5,25.28,North,0,0.0,0.0,96,0.00,,---,0.00,VWS V13.01,2013-04-08 02:20:00,
2013-04-07 20:25:00,41.2,40.1,25.28,North,0,0.0,0.0,96,0.00,,---,0.00,VWS V13.01,2013-04-08 02:25:00,
2013-04-07 20:31:00,41.2,40.1,25.28,North,0,0.0,0.0,96,0.00,,---,0.00,VWS V13.01,2013-04-08 02:31:00,
2013-04-07 20:36:00,41.2,40.1,25.31,North,0,0.0,0.0,96,0.00,,---,0.00,VWS V13.01,2013-04-08 02:36:00,
2013-04-07 20:42:00,41.4,40.6,25.31,North,0,0.0,0.0,97,0.00,,---,0.00,VWS V13.01,2013-04-08 02:42:00,
2013-04-07 20:47:00,41.2,40.4,25.31,North,0,0.0,0.0,97,0.00,,---,0.00,VWS V13.01,2013-04-08 02:47:00,
2013-04-07 20:52:00,41.0,40.2,25.28,North,0,0.0,0.0,97,0.00,,---,0.00,VWS V13.01,2013-04-08 02:52:00,
2013-04-07 20:58:00,40.6,40.1,25.28,North,0,0.0,0.0,98,0.00,,---,0.00,VWS V13.01,2013-04-08 02:58:00,
2013-04-07 21:03:00,40.1,39.3,25.28,North,0,0.0,0.0,97,0.00,,---,0.00,VWS V13.01,2013-04-08 03:03:00,
2013-04-07 21:08:00,39.6,38.8,25.28,North,0,0.0,0.0,97,0.00,,---,0.00,VWS V13.01,2013-04-08 03:08:00,
2013-04-07 21:13:00,39.4,38.6,25.28,North,0,0.0,0.0,97,0.00,,---,0.00,VWS V13.01,2013-04-08 03:13:00,
2013-04-07 21:18:00,39.2,38.4,25.28,North,0,0.0,0.0,97,0.00,,---,0.00,VWS V13.01,2013-04-08 03:18:00,
2013-04-07 21:23:00,39.2,38.4,25.28,North,0,0.0,0.0,97,0.00,,---,0.00,VWS V13.01,2013-04-08 03:23:00,
2013-04-07 21:28:00,38.8,38.1,25.28,North,0,0.0,0.0,97,0.00,,---,0.00,VWS V13.01,2013-04-08 03:28:00,
2013-04-07 21:34:00,38.8,38.1,25.31,North,0,0.0,0.0,97,0.00,,---,0.00,VWS V13.01,2013-04-08 03:34:00,
2013-04-07 21:39:00,38.5,37.7,25.31,North,0,0.0,0.0,97,0.00,,---,0.00,VWS V13.01,2013-04-08 03:39:00,
2013-04-07 21:44:00,38.7,37.9,25.31,North,0,0.0,0.0,97,0.00,,---,0.00,VWS V13.01,2013-04-08 03:44:00,
2013-04-07 21:49:00,38.8,38.3,25.31,North,0,0.0,0.0,98,0.00,,---,0.00,VWS V13.01,2013-04-08 03:49:00,
2013-04-07 21:54:00,39.2,38.7,25.31,North,0,0.0,0.0,98,0.00,,---,0.00,VWS V13.01,2013-04-08 03:54:00,
2013-04-07 21:59:00,39.2,38.7,25.31,North,0,0.0,0.0,98,0.00,,---,0.00,VWS V13.01,2013-04-08 03:59:00,
2013-04-07 22:00:00,39.2,38.7,25.31,North,0,0.0,0.0,98,0.00,,---,0.00,VWS V13.01,2013-04-08 04:00:00,
2013-04-07 22:05:00,39.2,38.7,25.28,North,0,0.0,0.0,98,0.00,,---,0.00,VWS V13.01,2013-04-08 04:05:00,
2013-04-07 22:10:00,38.8,38.3,25.28,North,0,0.0,0.0,98,0.00,,---,0.00,VWS V13.01,2013-04-08 04:10:00,
2013-04-07 22:15:00,38.7,38.2,25.28,North,0,0.0,0.0,98,0.00,,---,0.00,VWS V13.01,2013-04-08 04:15:00,
2013-04-07 22:20:00,38.7,38.2,25.31,North,0,0.0,0.0,98,0.00,,---,0.00,VWS V13.01,2013-04-08 04:20:00,
2013-04-07 22:25:00,39.0,38.5,25.31,North,0,0.0,0.0,98,0.00,,---,0.00,VWS V13.01,2013-04-08 04:25:00,
2013-04-07 22:30:00,39.2,38.7,25.31,North,0,0.0,0.0,98,0.00,,---,0.00,VWS V13.01,2013-04-08 04:30:00,
2013-04-07 22:35:00,39.0,38.5,25.31,North,0,0.0,0.0,98,0.00,,---,0.00,VWS V13.01,2013-04-08 04:35:00,
2013-04-07 22:40:00,39.2,38.7,25.31,North,0,0.0,0.0,98,0.00,,---,0.00,VWS V13.01,2013-04-08 04:40:00,
2013-04-07 22:45:00,39.2,38.7,25.31,North,0,0.0,0.0,98,0.00,,---,0.00,VWS V13.01,2013-04-08 04:45:00,
2013-04-07 22:50:00,39.2,38.7,25.31,North,0,0.0,0.0,98,0.00,,---,0.00,VWS V13.01,2013-04-08 04:50:00,
2013-04-07 22:55:00,39.2,38.7,25.31,North,0,0.0,0.0,98,0.00,,---,0.00,VWS V13.01,2013-04-08 04:55:00,
2013-04-07 23:00:00,38.8,38.3,25.31,North,0,0.0,0.0,98,0.00,,---,0.00,VWS V13.01,2013-04-08 05:00:00,
2013-04-07 23:05:00,38.1,37.6,25.31,North,0,0.0,0.0,98,0.00,,---,0.00,VWS V13.01,2013-04-08 05:05:00,
2013-04-07 23:10:00,37.8,37.2,25.31,North,0,0.0,0.0,98,0.00,,---,0.00,VWS V13.01,2013-04-08 05:10:00,
2013-04-07 23:15:00,37.6,37.1,25.31,North,0,0.0,0.0,98,0.00,,---,0.00,VWS V13.01,2013-04-08 05:15:00,
2013-04-07 23:20:00,37.2,36.7,25.28,North,0,0.0,0.0,98,0.00,,---,0.00,VWS V13.01,2013-04-08 05:20:00,
2013-04-07 23:25:00,37.2,36.7,25.28,North,0,0.0,0.0,98,0.00,,---,0.00,VWS V13.01,2013-04-08 05:25:00,
2013-04-07 23:30:00,37.2,36.7,25.28,North,0,0.0,0.0,98,0.00,,---,0.00,VWS V13.01,2013-04-08 05:30:00,
2013-04-07 23:35:00,36.9,36.3,25.28,North,0,0.0,0.0,98,0.00,,---,0.00,VWS V13.01,2013-04-08 05:35:00,
2013-04-07 23:40:00,36.9,36.3,25.28,North,0,0.0,0.0,98,0.00,,---,0.00,VWS V13.01,2013-04-08 05:40:00,
2013-04-07 23:45:00,36.7,36.2,25.28,North,0,0.0,0.0,98,0.00,,---,0.00,VWS V13.01,2013-04-08 05:45:00,
2013-04-07 23:51:00,36.3,35.8,25.28,North,0,0.0,0.0,98,0.00,,---,0.00,VWS V13.01,2013-04-08 05:51:00,
2013-04-07 23:56:00,36.0,35.5,25.28,North,0,0.0,0.0,98,0.00,,---,0.00,VWS V13.01,2013-04-08 05:56:00,